Weather History for Rickenbacker, OH

Change the Weather History Date:

Sunday, April 7, 2013

  Actual Average Record
Temperature  
Mean Temperature 64 °F -  
Max Temperature 75 °F 62 °F 82 °F (2001)
Min Temperature 52 °F 41 °F 23 °F (2007)
Degree Days  
Heating Degree Days 2    
Growing Degree Days 14 (Base 50)    
Moisture  
Dew Point 36 °F    
Average Humidity 36    
Maximum Humidity 61    
Minimum Humidity 25    
Precipitation  
Precipitation 0.00 in - - ()
Sea Level Pressure  
Sea Level Pressure 29.91 in    
Wind  
Wind Speed 14 mph (SW)    
Max Wind Speed 25 mph    
Max Gust Speed 33 mph    
Visibility 10 miles    
Events      
Averages and records for this station are not official NWS values.
T = Trace of Precipitation, MM = Missing Value Source: NWS Daily Summary

Daily Weather History Graph

Daily Weather History Graph

Search for Another Location

Airport:

Trip Planner

Search our weather history database for the weather conditions in past years. The results will help you decide how hot, cold, wet, or windy it might be!

Date:

Astronomy

Apr. 07, 2013 Rise Set
Actual Time 7:05 AM EDT 8:02 PM EDT
Civil Twilight 6:38 AM EDT 8:29 PM EDT
Nautical Twilight 6:05 AM EDT 9:02 PM EDT
Astronomical Twilight 5:31 AM EDT 9:36 PM EDT
Moon 5:22 AM EDT (4/7) 5:33 PM EDT (4/7)
Length of Visible Light 13h 51m
Length of Day
12h 56m
Waning Crescent, 8% of the Moon is Illuminated
Apr 7
Waning Crescent
Apr 10
New
Apr 18
First Quarter
Apr 25
Full
May 2
Last Quarter

Hourly Weather History & Observations

Time (EDT) Temp. Dew Point Humidity Pressure Visibility Wind Dir Wind Speed Gust Speed Precip Events Conditions
12:15 AM 52.0 °F 19.4 °F 28% 29.93 in 10.0 mi South 6.9 mph - N/A   Clear
12:35 AM 52.9 °F 19.8 °F 27% 29.92 in 10.0 mi SSE 11.5 mph - N/A   Clear
12:55 AM 54.3 °F 18.9 °F 25% 29.92 in 10.0 mi South 6.9 mph - N/A   Clear
1:15 AM 53.8 °F 19.4 °F 26% 29.91 in 10.0 mi SSE 9.2 mph - N/A   Clear
1:35 AM 55.2 °F 20.1 °F 25% 29.90 in 10.0 mi South 12.7 mph - N/A   Clear
1:55 AM 56.1 °F 21.4 °F 26% 29.90 in 10.0 mi South 12.7 mph - N/A   Clear
2:15 AM 57.0 °F 22.8 °F 27% 29.90 in 10.0 mi South 12.7 mph - N/A   Clear
2:35 AM 57.6 °F 24.3 °F 28% 29.89 in 10.0 mi South 12.7 mph - N/A   Clear
2:55 AM 57.7 °F 25.7 °F 29% 29.88 in 10.0 mi South 12.7 mph - N/A   Clear
3:15 AM 57.6 °F 26.6 °F 31% 29.88 in 10.0 mi South 11.5 mph - N/A   Clear
3:35 AM 57.9 °F 27.5 °F 31% 29.87 in 10.0 mi South 12.7 mph - N/A   Clear
3:55 AM 58.6 °F 28.4 °F 32% 29.87 in 10.0 mi South 12.7 mph - N/A   Scattered Clouds
4:15 AM 59.0 °F 29.7 °F 33% 29.87 in 10.0 mi South 12.7 mph - N/A   Scattered Clouds
4:35 AM 59.7 °F 30.7 °F 33% 29.87 in 10.0 mi South 15.0 mph 20.7 mph N/A   Clear
4:55 AM 59.7 °F 31.6 °F 35% 29.86 in 10.0 mi South 16.1 mph - N/A   Clear
5:15 AM 59.5 °F 32.0 °F 35% 29.86 in 10.0 mi South 17.3 mph 21.9 mph N/A   Clear
5:35 AM 60.1 °F 32.7 °F 36% 29.86 in 10.0 mi SSW 19.6 mph 23.0 mph N/A   Clear
5:55 AM 60.6 °F 32.9 °F 35% 29.86 in 10.0 mi SSW 19.6 mph 24.2 mph N/A   Clear
6:15 AM 60.3 °F 33.3 °F 36% 29.86 in 10.0 mi SSW 18.4 mph 23.0 mph N/A   Scattered Clouds
6:35 AM 60.3 °F 33.4 °F 37% 29.87 in 10.0 mi SSW 20.7 mph 25.3 mph N/A   Overcast
6:55 AM 60.6 °F 33.8 °F 37% 29.86 in 10.0 mi SSW 17.3 mph 26.5 mph N/A   Overcast
7:15 AM 61.3 °F 33.8 °F 36% 29.87 in 10.0 mi SSW 20.7 mph 28.8 mph N/A   Overcast
7:35 AM 61.7 °F 33.8 °F 35% 29.88 in 10.0 mi SSW 21.9 mph 26.5 mph N/A   Overcast
7:55 AM 61.7 °F 34.3 °F 36% 29.88 in 10.0 mi SSW 19.6 mph 27.6 mph N/A   Mostly Cloudy
8:15 AM 61.7 °F 34.9 °F 37% 29.89 in 10.0 mi SSW 21.9 mph 29.9 mph N/A   Mostly Cloudy
8:35 AM 61.9 °F 35.1 °F 37% 29.89 in 10.0 mi SW 20.7 mph 27.6 mph N/A   Scattered Clouds
8:55 AM 62.4 °F 35.2 °F 36% 29.90 in 10.0 mi SW 20.7 mph 25.3 mph N/A   Clear
9:15 AM 63.1 °F 35.4 °F 36% 29.90 in 10.0 mi SW 18.4 mph 29.9 mph N/A   Mostly Cloudy
9:35 AM 63.5 °F 35.6 °F 35% 29.90 in 10.0 mi SW 19.6 mph 26.5 mph N/A   Overcast
9:55 AM 63.5 °F 35.6 °F 35% 29.90 in 10.0 mi SW 19.6 mph 31.1 mph N/A   Overcast
10:15 AM 63.7 °F 35.8 °F 35% 29.91 in 10.0 mi SW 19.6 mph 29.9 mph N/A   Overcast
10:35 AM 63.7 °F 36.1 °F 36% 29.91 in 10.0 mi SW 19.6 mph 27.6 mph N/A   Overcast
10:55 AM 64.0 °F 36.3 °F 36% 29.91 in 10.0 mi SW 20.7 mph 27.6 mph N/A   Overcast
11:15 AM 65.1 °F 36.9 °F 35% 29.91 in 10.0 mi SW 20.7 mph 26.5 mph N/A   Mostly Cloudy
11:35 AM 68.0 °F 37.4 °F 33% 29.91 in 10.0 mi SW 18.4 mph 31.1 mph N/A   Mostly Cloudy
11:55 AM 69.4 °F 37.9 °F 32% 29.92 in 10.0 mi WSW 19.6 mph 29.9 mph N/A   Mostly Cloudy
12:15 PM 70.2 °F 38.1 °F 31% 29.91 in 10.0 mi WSW 19.6 mph 29.9 mph N/A   Scattered Clouds
12:35 PM 70.5 °F 38.8 °F 32% 29.91 in 10.0 mi WSW 21.9 mph 27.6 mph N/A   Mostly Cloudy
12:55 PM 70.7 °F 39.0 °F 32% 29.91 in 10.0 mi WSW 24.2 mph 33.4 mph N/A   Overcast
1:15 PM 70.5 °F 39.2 °F 32% 29.91 in 10.0 mi SW 17.3 mph 27.6 mph N/A   Mostly Cloudy
1:35 PM 71.6 °F 39.4 °F 31% 29.91 in 10.0 mi WSW 23.0 mph 29.9 mph N/A   Scattered Clouds
1:55 PM 71.6 °F 38.8 °F 30% 29.91 in 10.0 mi SW 18.4 mph 27.6 mph N/A   Mostly Cloudy
2:15 PM 71.4 °F 39.0 °F 31% 29.91 in 10.0 mi SW 16.1 mph 27.6 mph N/A   Mostly Cloudy
2:35 PM 72.3 °F 38.8 °F 30% 29.91 in 10.0 mi SW 17.3 mph 27.6 mph N/A   Scattered Clouds
2:55 PM 75.0 °F 38.3 °F 26% 29.91 in 10.0 mi SW 23.0 mph 29.9 mph N/A   Scattered Clouds
3:15 PM 74.3 °F 37.8 °F 27% 29.91 in 10.0 mi SW 21.9 mph 27.6 mph N/A   Mostly Cloudy
3:35 PM 73.6 °F 37.9 °F 27% 29.91 in 10.0 mi WSW 20.7 mph 26.5 mph N/A   Mostly Cloudy
3:55 PM 73.9 °F 37.4 °F 27% 29.91 in 10.0 mi WSW 21.9 mph 29.9 mph N/A   Mostly Cloudy
4:15 PM 73.4 °F 36.9 °F 26% 29.92 in 10.0 mi WSW 25.3 mph 31.1 mph N/A   Mostly Cloudy
4:35 PM 72.5 °F 37.6 °F 28% 29.92 in 10.0 mi WSW 17.3 mph 24.2 mph N/A   Overcast
4:55 PM 72.1 °F 38.1 °F 29% 29.92 in 10.0 mi WSW 16.1 mph 23.0 mph N/A   Overcast
5:15 PM 72.1 °F 39.0 °F 30% 29.93 in 10.0 mi WSW 15.0 mph - N/A   Overcast
5:35 PM 72.1 °F 39.2 °F 30% 29.93 in 10.0 mi WSW 12.7 mph 19.6 mph N/A   Overcast
5:55 PM 72.0 °F 40.5 °F 32% 29.93 in 10.0 mi SW 13.8 mph 20.7 mph N/A   Overcast
6:15 PM 72.0 °F 41.5 °F 33% 29.94 in 10.0 mi SW 10.4 mph 24.2 mph N/A   Mostly Cloudy
6:35 PM 72.1 °F 41.9 °F 34% 29.94 in 10.0 mi SW 12.7 mph 18.4 mph N/A   Mostly Cloudy
6:55 PM 70.5 °F 42.1 °F 36% 29.94 in 10.0 mi SW 9.2 mph - N/A   Mostly Cloudy
7:15 PM 69.8 °F 42.6 °F 37% 29.94 in 10.0 mi SW 10.4 mph - N/A   Overcast
7:35 PM 68.2 °F 45.3 °F 44% 29.95 in 10.0 mi SW 6.9 mph - N/A   Overcast
7:55 PM 66.7 °F 45.9 °F 47% 29.95 in 10.0 mi West 5.8 mph - N/A   Overcast
8:15 PM 66.7 °F 45.0 °F 45% 29.95 in 10.0 mi WSW 5.8 mph - N/A   Overcast
8:35 PM 65.7 °F 45.0 °F 47% 29.96 in 10.0 mi NW 3.5 mph - N/A   Mostly Cloudy
8:55 PM 65.1 °F 44.4 °F 47% 29.96 in 10.0 mi SW 3.5 mph - N/A   Scattered Clouds
9:15 PM 62.4 °F 44.8 °F 52% 29.97 in 10.0 mi SW 6.9 mph - N/A   Clear
9:35 PM 63.1 °F 45.0 °F 51% 29.98 in 10.0 mi WSW 4.6 mph - N/A   Clear
9:55 PM 62.4 °F 44.8 °F 52% 29.98 in 10.0 mi Calm Calm - N/A   Clear
10:15 PM 61.5 °F 45.0 °F 55% 29.98 in 10.0 mi Calm Calm - N/A   Clear
10:35 PM 60.3 °F 45.1 °F 57% 29.99 in 10.0 mi South 9.2 mph - N/A   Mostly Cloudy
10:55 PM 61.3 °F 45.9 °F 57% 29.99 in 10.0 mi South 6.9 mph - N/A   Mostly Cloudy
11:15 PM 61.2 °F 46.4 °F 58% 29.99 in 10.0 mi South 6.9 mph - N/A   Mostly Cloudy
11:35 PM 60.8 °F 46.8 °F 60% 29.99 in 10.0 mi South 8.1 mph - N/A   Overcast
11:55 PM 60.6 °F 47.3 °F 61% 29.99 in 10.0 mi SSW 6.9 mph - N/A   Scattered Clouds